Location: Shenandoah County Park
(38.9356°N, 78.4524°W)
Time: 12:45:09
(UTC-05:00)

Transit 2A - Pass Details

Date: 20 October 2025
Orbit: 591 x 954 km, 66.7° (Epoch: 07 November)

Event Time Altitude Azimuth Distance (km) Brightness Sun altitude
Rises 19:16:52 0° 226° (SW) 2,957 9.9 -10.2°
Reaches altitude 10° 19:19:09 10° 233° (SW) 2,096 9.2 -10.7°
Maximum altitude 19:23:41 43° 305° (NW) 1,001 7.0 -11.6°
Drops below altitude 10° 19:28:44 10° 17° (NNE) 2,330 8.3 -12.5°
Sets 19:31:24 0° 24° (NNE) 3,327 9.0 -13.1°
